Regional Weather Roundup
Issued by NWS

Home | Current Version | Previous Version | Text Only | Print | Product List | Glossary Off
Versions: 1 2 3 4 5 6 7 8 9 10 11 12 13 14 15 16 17 18 19 20 21 22 23 24 25 26 27 28 29 30 31 32 33 34 35 36 37 38 39 40 41 42 43 44 45 46 47 48 49 50

179
ASUS43 KLOT 280603
RWRIL

ILLINOIS REGIONAL WEATHER ROUNDUP
NATIONAL WEATHER SERVICE CHICAGO/ROMEOVILLE IL
100 AM CDT TUE MAR 28 2017

NOTE: "FAIR" INDICATES FEW OR NO CLOUDS BELOW 12,000 FEET WITH NO
SIGNIFICANT WEATHER AND/OR OBSTRUCTIONS TO VISIBILITY.

* THESE STATIONS ARE NOT UNDER NWS QUALITY CONTROL. THEY ALSO MAY NOT
  REPORT WEATHER SUCH AS PRECIPITATION OR FOG.

ILZ001-002-007-009-015-016-024-280700-
NORTHWEST ILLINOIS

CITY           SKY/WX    TMP DP  RH WIND       PRES   REMARKS
MOLINE         CLOUDY    50  44  80 N3        29.99R
6HR MIN TEMP:  50; 6HR MAX TEMP:  52;

STERLING*      CLOUDY    47  46  97 NE5       29.99S FOG
SAVANNA*       CLOUDY    47  44  88 NE3       30.00S
$$

ILZ003-004-008-010-011-017-018-280700-
NORTH CENTRAL ILLINOIS

CITY           SKY/WX    TMP DP  RH WIND       PRES   REMARKS
ROCKFORD       DRIZZLE   47  44  90 E8        30.01R FOG
6HR MIN TEMP:  47; 6HR MAX TEMP:  51; 6HR PCP: TRACE;

FREEPORT*      CLOUDY    45  45  98 CALM      30.01R FOG
ROCHELLE*      CLOUDY    45  44  95 E7        30.00R FOG
DE KALB*       CLOUDY    42  40  91 NE10      29.99S
$$

ILZ005-006-012>014-019>023-280700-
NORTHEAST ILLINOIS

CITY           SKY/WX    TMP DP  RH WIND       PRES   REMARKS
CHICAGO-OHARE  CLOUDY    42  36  79 N10       29.99R
6HR MIN TEMP:  42; 6HR MAX TEMP:  45;

CHICAGO-MIDWAY CLOUDY    42  36  79 N8        29.99R
6HR MIN TEMP:  42; 6HR MAX TEMP:  44;

AURORA         CLOUDY    43  38  82 NE7       29.99R
6HR MIN TEMP:  43; 6HR MAX TEMP:  50;

LANSING*       CLOUDY    40  38  96 N9        29.97S
WAUKEGAN       CLOUDY    40  37  89 VRB6      30.00R
6HR MIN TEMP:  38; 6HR MAX TEMP:  40;

DUPAGE AIRPORT CLOUDY    41  39  93 NE9       29.98S
6HR MIN TEMP:  41; 6HR MAX TEMP:  47;

WHEELING       CLOUDY    40  37  89 N7        30.01R
6HR MIN TEMP:  40; 6HR MAX TEMP:  41;

MORRIS*        CLOUDY    43  39  84 CALM      29.98R
NORTHERLY ISL    N/A     39  36  89 MISG        N/A
$$

LMZ740>746-280700-
SOUTHERN LAKE MICHIGAN

STATION/POSITION SKY/WX   TEMP    WIND        PRES    VSBY  WAVE
                          AIR SEA DIR/SP/G                  HT/PER
                          (F)     (DEG/KT/KT) (MB)    (MI)  (FT/S)
HARRISON CRIB              39     340/ 14/ 15   N/A
BURNHAM HARBOR             39     330/ 11/ 12   N/A
CALUMET HARBOR             38     330/ 10/ 12 1014.7R
BURNS HARBOR               39     340/  9/ 12 1015.2F
MICHIGAN CITY              38     330/  8/  9   N/A
$$

ILZ025>027-034>036-040-047-049-050-058-095>099-280700-
WEST-CENTRAL ILLINOIS

CITY           SKY/WX    TMP DP  RH WIND       PRES   REMARKS
QUINCY         CLOUDY    50  47  89 N8        29.99R
GALESBURG*     CLOUDY    48  47  95 N3        29.98S
MACOMB*        CLOUDY    49  48  95 N6        30.01R FOG
JACKSONVILLE*  CLOUDY    51  49  93 N8        29.97R FOG
PITTSFIELD*    CLOUDY    51  50  95 NW7       30.00R FOG
$$

ILZ028>032-037-038-041>044-048-051>054-059>061-280700-
CENTRAL ILLINOIS

CITY           SKY/WX    TMP DP  RH WIND       PRES   REMARKS
PONTIAC        CLOUDY    46  44  95 NE12      29.97S
BLOOMINGTON    CLOUDY    46  45  96 NE12      29.95R FOG
DECATUR        CLOUDY    52  50  93 NE10      29.92S
PEORIA         CLOUDY    50  49  96 N6        29.97R FOG
6HR MIN TEMP:  50; 6HR MAX TEMP:  53;

SPRINGFIELD    CLOUDY    53  50  89 NW7       29.96R FOG
6HR MIN TEMP:  52; 6HR MAX TEMP:  57;

TAYLORVILLE    NOT AVBL
$$

ILZ033-039-045-046-055>057-062-063-280700-
EAST-CENTRAL ILLINOIS

CITY           SKY/WX    TMP DP  RH WIND       PRES   REMARKS
CHAMPAIGN      CLOUDY    48  45  89 N14       29.91S FOG
RANTOUL*       CLOUDY    47  46  96 NE12      29.92S FOG
MATTOON        CLOUDY    53  53 100 N10       29.89R FOG
PARIS*         CLOUDY    53  52  97 N8        29.89R FOG
$$

ILZ079-100>102-280700-
SOUTHWEST ILLINOIS

CITY           SKY/WX    TMP DP  RH WIND       PRES   REMARKS
BELLEVILLE     CLOUDY    55  55 100 NW8       29.93R
CAHOKIA*       CLOUDY    55  51  86 N9        29.95R
SPARTA*        CLOUDY    55  53  92 NW5       29.95R
$$

ILZ064>066-069>071-074>076-080>082-084>086-088>090-092>094-280700-
SOUTH-CENTRAL ILLINOIS

CITY           SKY/WX    TMP DP  RH WIND       PRES   REMARKS
CARBONDALE     CLOUDY    56  54  93 NW10      29.91R
6HR MIN TEMP:  56; 6HR MAX TEMP:  62; 6HR PCP: TRACE;

CAIRO*         MOCLDY    52  51  94 W5        29.91R
EFFINGHAM*     MOCLDY    54  54  99 NW6       29.91R
MARION         CLOUDY    57  57 100 NW6       29.92R
MT. VERNON     CLOUDY    57  53  86 VRB5      29.90R
CENTRALIA*     CLOUDY    55  54  94 NW10      29.90S
SALEM*         CLOUDY    56  53  89 NW10      29.90R
$$

ILZ067-068-072-073-078-083-087-091-280700-
SOUTHEAST ILLINOIS

CITY           SKY/WX    TMP DP  RH WIND       PRES   REMARKS
LAWRENCEVILLE  CLOUDY    57  56  96 N6        29.84F
FLORA*         CLOUDY    57  55  90 N12       29.88R
FAIRFIELD*     CLOUDY    56  55  94 N6        29.87R
HARRISBURG*    CLOUDY    56  55  94 NW9       29.88F
ROBINSON*      CLOUDY    55  54  97 N9        29.86S
CARMI*         CLOUDY    56  55  95 W9        29.86S
$$

ABBREVIATIONS USED IN REMARKS
   TC - TEMPERATURE IN CELSIUS
  WCI - WIND CHILL INDEX
   HX - HEAT INDEX
  VSB - VISIBILITY
$$





USA.gov is the U.S. government's official web portal to all federal, state and local government web resources and services.